Roseburg, OR

11:54 AM PST on November 13, 2019 (GMT -0800)
Roseburg Regional

Weather History for KRBG - September, 2019

Change the Weather History Date:

Friday, September 20, 2019

  Actual Average Record
Temperature  
Mean Temperature 63 °F 64 °F  
Max Temperature 72 °F 78 °F 98 °F (1974)
Min Temperature 53 °F 50 °F 38 °F (1965)
Degree Days  
Heating Degree Days 2 3  
Month to date heating degree days 24 29  
Since 1 July heating degree days 29 50  
Cooling Degree Days 0 2  
Month to date cooling degree days 70 56  
Year to date cooling degree days 673 467  
Growing Degree Days 12 (Base 50)    
Moisture  
Dew Point 53 °F    
Average Humidity 75    
Maximum Humidity 100    
Minimum Humidity 49    
Precipitation  
Precipitation 0.00 in 0.04 in 0.59 in (2013)
Month to date precipitation 2.05 0.55  
Year to date precipitation 24.82 20.20  
Sea Level Pressure  
Sea Level Pressure 30.13 in    
Wind  
Wind Speed 2 mph (NW)    
Max Wind Speed 10 mph    
Max Gust Speed 13 mph    
Visibility 9 miles    
Events Rain    
T = Trace of Precipitation, MM = Missing Value Source: NWS Daily Summary

Daily Weather History Graph

Daily Weather History Graph

Search for Another Location

Airport or City:

Astronomy

Sep. 20, 2019 Rise Set
Actual Time 6:58 AM PDT 7:14 PM PDT
Civil Twilight 6:29 AM PDT 7:43 PM PDT
Nautical Twilight 5:56 AM PDT 8:16 PM PDT
Astronomical Twilight 5:22 AM PDT 8:50 PM PDT
Moon 10:58 PM PDT (9/20) 1:18 PM PDT (9/20)
Length of Visible Light 13h 13m
Length of Day
12h 16m
Waning Gibbous, 64% of the Moon is Illuminated
Sep 20
Waning Gibbous
Sep 21
Last Quarter
Sep 28
New
Oct 5
First Quarter
Oct 13
Full

Hourly Weather History & Observations

Time (PDT) Temp. Dew Point Humidity Pressure Visibility Wind Dir Wind Speed Gust Speed Precip Events Conditions
12:53 AM 57.0 °F 53.1 °F 87% 30.11 in 10.0 mi Calm Calm - 0.00 in Rain Light Rain
1:13 AM 57.0 °F 53.1 °F 87% 30.12 in 10.0 mi Calm Calm - 0.00 in   Mostly Cloudy
1:53 AM 57.0 °F 54.0 °F 89% 30.12 in 10.0 mi Calm Calm - 0.00 in   Overcast
2:12 AM 57.0 °F 53.1 °F 87% 30.12 in 10.0 mi Calm Calm - N/A   Overcast
2:53 AM 57.0 °F 53.1 °F 87% 30.11 in 10.0 mi South 4.6 mph - N/A   Overcast
3:53 AM 55.9 °F 52.0 °F 87% 30.11 in 10.0 mi Calm Calm - N/A   Partly Cloudy
4:53 AM 54.0 °F 51.1 °F 90% 30.11 in 10.0 mi Calm Calm - N/A   Clear
5:13 AM 53.1 °F 51.1 °F 93% 30.11 in 10.0 mi Calm Calm - N/A   Partly Cloudy
5:32 AM 54.0 °F 51.1 °F 90% 30.12 in 10.0 mi Calm Calm - N/A   Mostly Cloudy
5:53 AM 54.0 °F 51.1 °F 90% 30.12 in 10.0 mi Calm Calm - N/A   Overcast
6:11 AM 54.0 °F 52.0 °F 93% 30.13 in 1.8 mi Calm Calm - N/A   Overcast
6:46 AM 54.0 °F 53.1 °F 97% 30.13 in 1.8 mi Calm Calm - N/A   Overcast
6:53 AM 54.0 °F 53.1 °F 97% 30.13 in 1.2 mi Calm Calm - N/A   Overcast
6:59 AM 54.0 °F 53.1 °F 97% 30.13 in 3.0 mi Calm Calm - N/A   Overcast
7:18 AM 55.0 °F 53.1 °F 93% 30.13 in 9.0 mi ESE 4.6 mph - N/A   Overcast
7:53 AM 55.0 °F 53.1 °F 93% 30.13 in 10.0 mi SSE 4.6 mph - N/A   Overcast
8:22 AM 55.9 °F 53.1 °F 90% 30.14 in 10.0 mi Calm Calm - N/A   Overcast
8:53 AM 55.9 °F 53.1 °F 90% 30.14 in 10.0 mi Calm Calm - N/A   Overcast
9:53 AM 57.9 °F 54.0 °F 87% 30.15 in 10.0 mi SSW 3.5 mph - N/A   Overcast
10:53 AM 62.1 °F 53.1 °F 72% 30.15 in 10.0 mi Calm Calm - N/A   Partly Cloudy
11:53 AM 64.9 °F 53.1 °F 65% 30.14 in 10.0 mi SW 3.5 mph - N/A   Overcast
12:17 PM 64.9 °F 53.1 °F 65% 30.15 in 10.0 mi Calm Calm - N/A   Overcast
12:53 PM 66.0 °F 52.0 °F 60% 30.15 in 10.0 mi West 4.6 mph - N/A   Overcast
1:53 PM 66.9 °F 52.0 °F 59% 30.14 in 10.0 mi Calm Calm - N/A   Overcast
2:53 PM 68.0 °F 52.0 °F 56% 30.13 in 10.0 mi North 8.1 mph - N/A   Overcast
3:53 PM 70.0 °F 50.0 °F 49% 30.13 in 10.0 mi Calm Calm - N/A   Mostly Cloudy
4:53 PM 71.1 °F 51.1 °F 49% 30.12 in 10.0 mi Variable 3.5 mph - N/A   Partly Cloudy
5:53 PM 71.1 °F 52.0 °F 51% 30.12 in 10.0 mi NNW 5.8 mph - N/A   Partly Cloudy
6:53 PM 69.1 °F 54.0 °F 58% 30.11 in 10.0 mi North 4.6 mph - N/A   Clear
7:53 PM 64.9 °F 54.0 °F 68% 30.12 in 10.0 mi NNE 4.6 mph - N/A   Clear
8:53 PM 63.0 °F 55.0 °F 75% 30.13 in 10.0 mi North 3.5 mph - N/A   Clear
9:53 PM 61.0 °F 55.0 °F 81% 30.13 in 10.0 mi Calm Calm - N/A   Clear
10:53 PM 57.9 °F 54.0 °F 87% 30.14 in 10.0 mi Calm Calm - N/A   Clear
11:53 PM 57.0 °F 54.0 °F 89% 30.14 in 10.0 mi Calm Calm - N/A   Clear